SL-16 DEB, 22344

Orbit data source: Space-Track

SL-16 DEB, 22344 is space debris in LEO originally from a launch on Fri, 25 Dec 1992 UTC launched from the Tyuratam Missile And Space Complex (TTMTR). Debris objects in space refer to the collection of defunct objects orbiting the Earth. Examples of debris include non-operational satellites, rocket bodies, and fragments generated from explosions, collisions, or faulty payload assembly.

Loading next visibility...
Identifier
22344, 1992-093AH
Orbit
LEO
Country
Flag of CISCIS
Related business
Manufacturer
Unknown
Mission
Spacecraft
Bus & Motor
Unknown
Mass
Unknown
Launch date (UTC)
1992-12-25 (33 years ago)
Launch vehicle
Unknown
Launch site
Tyuratam Missile And Space Complex (TTMTR)
Object type
Payload
Rocket body
Debris
Shape & HBR
Unknown shape, 0.1 m
Radar Cross Section
Small (<0.1 m²)

Expand to show TLE details & history
Last TLE update: 23 hours ago

TLE from 23 hours ago
0 SL-16 DEB
1 22344U 92093AH  26126.35546518  .00000457  00000-0  25965-3 0  9998
2 22344  71.0944 250.2429 0100174 235.6194 123.5424 14.12603669703345
Epoch: 2026-05-06T08:31Z
TLE epoch observation values (Epoch: 2026-05-06T08:31:52.191Z)
Latitude
-0.00006°
Longitude
-101.94173°
Altitude
893.396 km
Speed
7.385 km/s
True Right ascension
16h 40m 58s
True Declination
0° 00' 00"
Sunlit
Object was in full shadow at epoch
Visualization orbit readout
Latitude
Unknown
Longitude
Unknown
Altitude
Unknown
Speed
Unknown
Apparent Right ascension
Unknown
Apparent Declination
Unknown
Sunlit
N/A
Visualization observer readout
Local Sidereal Time
15:26:15
Azimuth
Unknown
Elevation
Unknown
Doppler factor
Unknown
Orbital elements
Apogee altitude
920.784 km
Perigee altitude
776.002 km
Semi-major axis
7,226.53 km
Eccentricity
0.01002
Inclination
71.0944°
RAAN
250.2429°
Arg. of periapsis
235.6194°
True anomaly
124.49254°
Mean anomaly
123.5424°
Eccentric anomaly
124.01813°
Mean motion
3.53304 °/min
Orbital period
101.9 mins
BSTAR
0.00025965
Loading maneuver chart data...
Computing Atmospheric mass density...
Loading historical data...
Loading historical data...
Loading historical data...
Loading historical data...
Loading historical data...
Loading historical data...
Loading historical data...

Documentation

Showing up to 5 results
|